星链-5154 (STARLINK-5154 )
导读
STARLINK-5154是美国SpaceX公司星链星座的一颗互联网卫星,于2022年10月28日由猎鹰9号火箭成功发射,属于星链星座第四批次4-16组卫星。该卫星重约297公斤,运行在约550公里高度的近地轨道,作为星链全球卫星互联网组网的组成部分,为全球偏远地区、海洋等传统网络覆盖盲区提供高速低延迟互联网接入服务,配备激光星间链路实现空间网状数据传输,助力星链实现全球全天候稳定网络覆盖。
Basic Information
目录编号:
54176
目录名称:
STARLINK-5154
国际标识:
2022-141V
轨道中心:
EARTH
卫星名称:
星链-5154
卫星全名:
星链-5154 (STARLINK-5154 )
卫星状态:
在轨 (已飞行1414 天)
发射日期:
2022-10-28 UTC
国别 :
美国
(US)
星等 :
--
This satellite is enrolled in the Space Conjunction Data Service (SCDS) and the current flight risk assessment level is: No High Risk
Orbit Information
| 数据来源 | 国际轨道数据 |
| 星历时间: | 2026-09-11T13:17:21+0800 14小时前 查看轨道信息 |
| 半长轴: | 6840.883km |
| 偏心率: | 0.0001266 |
| 轨道倾角: | 53.157° |
| 近地点辐角 | 80.716° |
| 升交点赤经 | 236.801° |
| 平近点角 | 279.398° |
| 近地点: | 461.879km |
| 远地点: | 463.613km |
| 周期: | 93.849分钟 |
| 每日圈数: | 15.343857 |
Detailed Information
固有亮度:
5
最大亮度:
2.5
卫星平台:
Starlink v1.5
覆盖范围:
全球
运营商:
太空探索技术公司
运营商所在国:
美国
制造商(研发单位):
太空探索技术公司
制造商所在国:
美国
使用方式:
暂无
Satellite Introduction
星链(Starlink)计划是由太空探索技术公司(SpaceX)提出的一个巨型低轨卫星互联网星座项目,计划在2019年至2024年间在太空搭建由约1.2万颗卫星组成的“星链”网络,其中1584颗将部署在地球上空550千米处的近地轨道,并从2020年开始工作。该卫星仍在工作。
2D Orbit Map
3D Orbit Map
Orbit Altitude Analysis Chart
Orbit Inclination Analysis Chart
Orbit Comprehensive Analysis Chart
View Comprehensive ChartConjunction Data List
| Event ID | Objects | TCA | Miss Dist (km) | Collision Risk Probability | Collision Risk Index (CRI) | Action |
|---|---|---|---|---|---|---|
| CDM_260912-050905-417606-420821 |
STARLINK-5154
(54176)
STARLINK-34327
(64208) | 2026-09-12T 05:09:17+0000 |
0.324 km
远距离 | 1.876964E-4 高风险 | 0.8 | |
| CDM_260912-024805-417606-420821 |
STARLINK-5154
(54176)
STARLINK-34327
(64208) | 2026-09-12T 02:48:36+0000 |
0.456 km
远距离 | 8.500359E-5 中风险 | 0.74 | |
| CDM_260914-050605-417606-808621 |
STARLINK-5154
(54176)
STARLINK-37067
(68086) | 2026-09-14T 05:06:34+0000 |
0.888 km
远距离 | 3.491224E-5 中风险 | 0.66 | |
| CDM_260907-142105-340105-417623 |
STARLINK-4525
(53401)
STARLINK-5154
(54176) | 2026-09-07T 14:21:30+0000 |
2.494 km
极远距离 | 1.479687E-6 低风险 | 0.38 |
Miss Distance Evolution Trend with All Objects
Collision Probability Evolution Trend with All Objects

